Weather History for KCPS - August, 2013

Change the Weather History Date:

Friday, August 23, 2013

  Actual Average Record
Temperature  
Mean Temperature 80 °F -  
Max Temperature 90 °F 80 °F 99 °F (1948)
Min Temperature 71 °F 63 °F 52 °F (1997)
Cooling Degree Days 16    
Growing Degree Days 30 (Base 50)    
Moisture  
Dew Point 68 °F    
Average Humidity 72    
Maximum Humidity 97    
Minimum Humidity 42    
Precipitation  
Precipitation 0.00 in - - ()
Sea Level Pressure  
Sea Level Pressure 30.07 in    
Wind  
Wind Speed 3 mph (ENE)    
Max Wind Speed 13 mph    
Max Gust Speed 17 mph    
Visibility 9 miles    
Events      
Averages and records for this station are not official NWS values.
T = Trace of Precipitation, MM = Missing Value Source: NWS Daily Summary

Daily Weather History Graph

Daily Weather History Graph

Search for Another Location

Airport or City:

Trip Planner

Search our weather history database for the weather conditions in past years. The results will help you decide how hot, cold, wet, or windy it might be!

Date:

Astronomy

Aug. 23, 2013 Rise Set
Actual Time 6:22 AM CDT 7:43 PM CDT
Civil Twilight 5:54 AM CDT 8:11 PM CDT
Nautical Twilight 5:21 AM CDT 8:44 PM CDT
Astronomical Twilight 4:46 AM CDT 9:18 PM CDT
Moon 9:05 PM CDT (8/23) 9:14 AM CDT (8/23)
Length of Visible Light 14h 16m
Length of Day
13h 21m
Waning Gibbous, 91% of the Moon is Illuminated
Aug 23
Waning Gibbous
Aug 28
Last Quarter
Sep 5
New
Sep 12
First Quarter
Sep 19
Full

Hourly Weather History & Observations

Time (CDT) Temp. Heat Index Dew Point Humidity Pressure Visibility Wind Dir Wind Speed Gust Speed Precip Events Conditions
12:53 AM 73.0 °F - 71.1 °F 93% 30.05 in 4.0 mi Calm Calm - N/A   Clear
1:53 AM 73.0 °F - 71.1 °F 93% 30.04 in 4.0 mi Calm Calm - N/A   Clear
2:53 AM 73.0 °F - 71.1 °F 93% 30.04 in 5.0 mi Calm Calm - N/A   Clear
3:53 AM 72.0 °F - 71.1 °F 97% 30.05 in 5.0 mi Calm Calm - N/A   Clear
4:53 AM 73.9 °F - 70.0 °F 87% 30.06 in 10.0 mi ENE 5.8 mph - N/A   Clear
5:53 AM 73.0 °F - 69.1 °F 87% 30.07 in 10.0 mi East 4.6 mph - N/A   Clear
6:53 AM 72.0 °F - 68.0 °F 87% 30.09 in 10.0 mi Variable 5.8 mph - N/A   Clear
7:53 AM 73.0 °F - 69.1 °F 87% 30.09 in 10.0 mi Calm Calm - N/A   Clear
8:53 AM 75.9 °F - 69.1 °F 79% 30.09 in 10.0 mi Calm Calm - N/A   Clear
9:53 AM 79.0 °F - 70.0 °F 74% 30.10 in 10.0 mi Calm Calm - N/A   Clear
10:53 AM 82.9 °F 87.0 °F 70.0 °F 65% 30.10 in 10.0 mi NE 3.5 mph - N/A   Clear
11:53 AM 86.0 °F 90.7 °F 70.0 °F 59% 30.09 in 10.0 mi Variable 6.9 mph - N/A   Partly Cloudy
12:53 PM 86.0 °F 90.1 °F 69.1 °F 57% 30.09 in 10.0 mi ENE 5.8 mph - N/A   Mostly Cloudy
1:53 PM 89.1 °F 92.9 °F 68.0 °F 50% 30.07 in 10.0 mi NNE 6.9 mph - N/A   Mostly Cloudy
2:53 PM 90.0 °F 92.4 °F 66.0 °F 45% 30.06 in 10.0 mi Variable 5.8 mph - N/A   Clear
3:53 PM 90.0 °F 92.4 °F 66.0 °F 45% 30.04 in 10.0 mi ENE 11.5 mph - N/A   Clear
4:53 PM 89.1 °F 90.0 °F 63.0 °F 42% 30.03 in 10.0 mi East 12.7 mph 17.3 mph N/A   Clear
5:53 PM 88.0 °F 90.3 °F 66.0 °F 48% 30.03 in 10.0 mi ENE 9.2 mph - N/A   Clear
6:53 PM 84.9 °F 87.1 °F 66.0 °F 53% 30.04 in 10.0 mi East 8.1 mph - N/A   Clear
7:53 PM 79.0 °F - 66.9 °F 66% 30.06 in 10.0 mi Calm Calm - N/A   Clear
8:53 PM 77.0 °F - 66.9 °F 71% 30.07 in 10.0 mi Calm Calm - N/A   Clear
9:53 PM 73.9 °F - 68.0 °F 82% 30.09 in 10.0 mi Calm Calm - N/A   Clear
10:53 PM 71.1 °F - 66.9 °F 87% 30.09 in 10.0 mi Calm Calm - N/A   Clear
11:53 PM 72.0 °F - 66.0 °F 81% 30.09 in 10.0 mi Calm Calm - N/A   Clear